BLOCK DM-SL R/B, 29521

Orbit data source: Space-Track

BLOCK DM-SL R/B, 29521 is space debris in HEO originally from a launch on Mon, 30 Oct 2006 UTC launched from the Sea Launch (SEAL). Debris objects in space refer to the collection of defunct objects orbiting the Earth. Examples of debris include non-operational satellites, rocket bodies, and fragments generated from explosions, collisions, or faulty payload assembly.

Loading next visibility...
Identifier
29521, 2006-049B
Orbit
HEO
Country
Flag of UnknownUnknown / SEAL
Related business
Manufacturer
RKKE
Mission
Spacecraft
Bus & Motor
BLOK DM2, 11D58M
Mass
~3,070 kg wet, 3,070 kg dry
Launch date (UTC)
2006-10-30 (19 years ago)
Launch vehicle
Unknown
Launch site
Sea Launch (SEAL)
Object type
Payload
Rocket body
Debris
Shape & HBR
Cyl, 3.1 m
Radar Cross Section
23.684 m², Large (>1 m²)

Expand to show TLE details & history
Last TLE update: 21 hours ago

TLE from 21 hours ago
0 BLOCK DM-SL R/B
1 29521U 06049B   25310.43308545 -.00000123  00000-0  00000-0 0  9998
2 29521   0.1498  72.8355 6931263 315.2017 146.4263  2.18866608152067
Epoch: 2025-11-06T10:23Z
TLE epoch observation values (Epoch: 2025-11-06T10:23:38.582Z)
Latitude
0.11051°
Longitude
-2.30158°
Altitude
35,014.489 km
Speed
1.831 km/s
True Right ascension
13h 18m 00s
True Declination
0° 06' 37"
Sunlit
Object was in daylight at epoch
Visualization orbit readout
Latitude
Unknown
Longitude
Unknown
Altitude
Unknown
Speed
Unknown
Apparent Right ascension
Unknown
Apparent Declination
Unknown
Sunlit
N/A
Visualization observer readout
Local Sidereal Time
03:35:23
Azimuth
Unknown
Elevation
Unknown
Doppler factor
Unknown
Orbital elements
Apogee altitude
36,056.432 km
Perigee altitude
1,312.992 km
Semi-major axis
25,062.849 km
Eccentricity
0.69313
Inclination
0.1498°
RAAN
72.8355°
Arg. of periapsis
315.2017°
True anomaly
171.41635°
Mean anomaly
146.4263°
Eccentric anomaly
160.00546°
Mean motion
0.54701 °/min
Orbital period
658.12 mins
BSTAR
0
Loading maneuver chart data...
Computing Atmospheric mass density...
Loading historical data...
Loading historical data...
Loading historical data...
Loading historical data...
Loading historical data...
Loading historical data...
Loading historical data...
Other satellites on launch #49 in the year 2006 (2006-10-30 UTC)

Documentation

Showing up to 5 results
|